{"data":{"norad_id":32954,"intl_designator":"2008-025B","name":"COSMOS 2437","alt_names":[],"object_type":"PAYLOAD","status":"ACTIVE","operator":null,"country":"CIS","launch_date":"2008-05-23","launch_site_code":"PLMSC","launch_vehicle":null,"mission":null,"orbit_class":"UNKNOWN","rcs_meters":0.8736,"size_class":null,"mass_kg":null,"dimensions":null,"purposes":[],"wikipedia_slug":null,"has_3d_model":false,"image_url":null,"decayed_at":null,"tle_current":{"epoch":"2026-05-25T04:51:47.251008Z","epoch_age_seconds":58376,"freshness":"FRESH","line1":"1 32954U 08025B   26145.20263022 -.00000024  00000+0 -24570-3 0  9991","line2":"2 32954  82.5041  11.7574 0021167  21.9199 116.2895 12.42758777816511","mean_motion":12.42758777,"eccentricity":0.0021167,"inclination_deg":82.5041,"raan_deg":11.7574,"arg_perigee_deg":21.9199,"mean_anomaly_deg":116.2895,"bstar":-0.0002457,"rev_number":81651,"period_min":115.87123958812,"perigee_km":1478.2651029586,"apogee_km":1511.5949448977,"semimajor_km":7873.0670239282,"source":"CELESTRAK","updated_at":"2026-05-25T13:37:55.128015Z"}}}